ASTRA 2D

Last updated on Jan. 21, 2021, 6:16 a.m. UTC

1 26638U 00081A   21020.70685328  .00000067  00000-0  00000-0 0  9991
2 26638   6.2295  63.5111 0002294 247.7826 120.7017  1.00269273 33128
UTC
Height (km)
Latitude
Longitude
Inclination
Orbital Period
UTC large
Height (km)
Speed (km/s)
/
Latitude / Longitude
Inclination (degrees)
Orbital Period (minutes)
Azimuth
Elevation
Range (km)
Doppler Factor
iOS Compass Heading
iOS Angle

Next 30 passes for location: Hong Kong

Rise time Rise Azimuth (degrees) Set time Set Azimuth (degrees) Duration Max altitude (degrees)

No matching passes for this satellites